| time (UTC) | temp F | wind direction | speed MPH | gust MPH | rain 1hr in | rain 24hr in | rain mn in | humidity % | barometer mb |
| 20260507151411 | 56 | 24 | 2.0 | 7.0 | 0.00 | 0.04 | 0.03 | 75 | 1011.6 |
| 20260507150511 | 56 | 36 | 1.0 | 4.0 | 0.00 | 0.04 | 0.03 | 79 | 1011.7 |
| 20260507144711 | 55 | 36 | 2.0 | 9.0 | 0.00 | 0.04 | 0.03 | 80 | 1011.7 |
| 20260507143811 | 55 | 45 | 2.0 | 9.0 | 0.00 | 0.06 | 0.03 | 81 | 1011.8 |
| 20260507142011 | 55 | 36 | 1.0 | 8.0 | 0.00 | 0.06 | 0.03 | 83 | 1012.0 |
| 20260507141111 | 55 | 343 | 0.0 | 3.0 | 0.00 | 0.07 | 0.03 | 84 | 1012.1 |
| 20260507140211 | 55 | 43 | 2.0 | 11.0 | 0.00 | 0.08 | 0.03 | 82 | 1012.3 |
| 20260507135311 | 55 | 40 | 2.0 | 7.0 | 0.00 | 0.08 | 0.03 | 83 | 1012.3 |
| 20260507134410 | 55 | 14 | 1.0 | 5.0 | 0.00 | 0.09 | 0.03 | 84 | 1012.1 |
| 20260507133510 | 55 | 9 | 0.0 | 2.0 | 0.00 | 0.10 | 0.03 | 84 | 1012.1 |
| 20260507132611 | 55 | 58 | 0.0 | 4.0 | 0.00 | 0.10 | 0.03 | 84 | 1012.0 |
| 20260507130810 | 55 | 38 | 2.0 | 7.0 | 0.00 | 0.10 | 0.03 | 84 | 1011.8 |
| 20260507125011 | 56 | 37 | 0.0 | 3.0 | 0.00 | 0.10 | 0.03 | 85 | 1011.8 |
| 20260507123211 | 56 | 31 | 1.0 | 4.0 | 0.00 | 0.11 | 0.03 | 85 | 1011.9 |
| 20260507121411 | 56 | 29 | 2.0 | 6.0 | 0.00 | 0.12 | 0.03 | 86 | 1011.6 |
| 20260507120511 | 55 | 31 | 2.0 | 9.0 | 0.00 | 0.12 | 0.03 | 88 | 1011.5 |
| 20260507113810 | 55 | 60 | 1.0 | 3.0 | 0.00 | 0.12 | 0.03 | 90 | 1011.4 |
| 20260507112911 | 55 | 66 | 1.0 | 4.0 | 0.00 | 0.12 | 0.03 | 90 | 1011.2 |
| 20260507112010 | 54 | 55 | 1.0 | 4.0 | 0.00 | 0.12 | 0.03 | 91 | 1011.0 |
| 20260507111110 | 54 | 49 | 1.0 | 5.0 | 0.00 | 0.12 | 0.03 | 91 | 1011.0 |
| 20260507110210 | 54 | 21 | 1.0 | 3.0 | 0.00 | 0.12 | 0.03 | 91 | 1011.2 |
| 20260507105310 | 54 | 58 | 0.0 | 3.0 | 0.00 | 0.12 | 0.03 | 91 | 1011.4 |
| 20260507104410 | 54 | 52 | 1.0 | 3.0 | 0.00 | 0.12 | 0.03 | 91 | 1011.1 |
| 20260507103510 | 54 | 27 | 1.0 | 5.0 | 0.00 | 0.12 | 0.03 | 91 | 1010.9 |
| 20260507102610 | 55 | 29 | 1.0 | 4.0 | 0.00 | 0.12 | 0.03 | 92 | 1011.0 |
| 20260507101710 | 55 | 11 | 0.0 | 3.0 | 0.00 | 0.12 | 0.03 | 92 | 1011.1 |
| 20260507100810 | 55 | 24 | 0.0 | 3.0 | 0.00 | 0.12 | 0.03 | 92 | 1010.2 |
| 20260507095910 | 55 | 31 | 0.0 | 3.0 | 0.00 | 0.12 | 0.03 | 91 | 1010.4 |
| 20260507095010 | 55 | 30 | 0.0 | 2.0 | 0.00 | 0.12 | 0.03 | 91 | 1010.8 |
| 20260507094110 | 55 | 31 | 0.0 | 1.0 | 0.00 | 0.12 | 0.03 | 91 | 1010.9 |
| 20260507093210 | 55 | 29 | 0.0 | 2.0 | 0.00 | 0.12 | 0.03 | 91 | 1010.8 |
| 20260507092310 | 55 | 23 | 0.0 | 3.0 | 0.00 | 0.12 | 0.03 | 91 | 1010.9 |
| 20260507091410 | 55 | 30 | 1.0 | 3.0 | 0.00 | 0.12 | 0.03 | 91 | 1010.5 |
| 20260507090510 | 55 | 26 | 1.0 | 3.0 | 0.00 | 0.12 | 0.03 | 91 | 1010.8 |
| 20260507084710 | 55 | 14 | 1.0 | 7.0 | 0.00 | 0.12 | 0.03 | 90 | 1010.6 |
| 20260507083810 | 56 | 31 | 2.0 | 5.0 | 0.00 | 0.12 | 0.03 | 90 | 1010.7 |
| 20260507082910 | 56 | 39 | 2.0 | 10.0 | 0.00 | 0.12 | 0.03 | 90 | 1010.3 |
| 20260507082010 | 56 | 34 | 2.0 | 7.0 | 0.00 | 0.12 | 0.03 | 90 | 1010.5 |
| 20260507080209 | 56 | 11 | 2.0 | 5.0 | 0.00 | 0.12 | 0.03 | 91 | 1010.7 |
| 20260507075309 | 57 | 2 | 3.0 | 8.0 | 0.00 | 0.12 | 0.03 | 91 | 1010.3 |
| 20260507074409 | 57 | 38 | 3.0 | 8.0 | 0.00 | 0.12 | 0.03 | 91 | 1010.3 |
| 20260507073509 | 58 | 43 | 3.0 | 9.0 | 0.01 | 0.12 | 0.03 | 91 | 1010.0 |
| 20260507072609 | 58 | 60 | 2.0 | 7.0 | 0.01 | 0.12 | 0.03 | 92 | 1009.9 |
| 20260507071709 | 59 | 55 | 3.0 | 9.0 | 0.02 | 0.12 | 0.03 | 91 | 1009.4 |
| 20260507070809 | 60 | 35 | 2.0 | 8.0 | 0.02 | 0.12 | 0.03 | 92 | 1009.9 |
| 20260507065909 | 60 | 23 | 2.0 | 8.0 | 0.02 | 0.12 | 0.03 | 92 | 1009.9 |
| 20260507065009 | 61 | 20 | 2.0 | 7.0 | 0.03 | 0.12 | 0.03 | 92 | 1009.7 |
| 20260507064109 | 62 | 356 | 2.0 | 10.0 | 0.03 | 0.12 | 0.03 | 92 | 1009.7 |
| 20260507063209 | 62 | 23 | 3.0 | 12.0 | 0.02 | 0.11 | 0.02 | 92 | 1009.5 |
| 20260507061409 | 64 | 44 | 1.0 | 6.0 | 0.01 | 0.10 | 0.01 | 92 | 1009.2 |
| 20260507055609 | 65 | 24 | 1.0 | 8.0 | 0.01 | 0.10 | 0.01 | 92 | 1008.6 |
| 20260507053809 | 66 | 1 | 0.0 | 2.0 | 0.00 | 0.09 | 0.00 | 90 | 1008.5 |
| 20260507052909 | 66 | 0 | 0.0 | 0.0 | 0.00 | 0.09 | 0.00 | 90 | 1008.4 |
| 20260507052009 | 66 | 0 | 0.0 | 0.0 | 0.00 | 0.09 | 0.00 | 90 | 1008.6 |
| 20260507051108 | 66 | 0 | 0.0 | 0.0 | 0.00 | 0.09 | 0.00 | 90 | 1008.9 |
| 20260507050209 | 67 | 241 | 0.0 | 2.0 | 0.00 | 0.09 | 0.00 | 89 | 1009.1 |
| 20260507044408 | 67 | 294 | 1.0 | 5.0 | 0.00 | 0.09 | 0.00 | 89 | 1009.1 |
| 20260507043509 | 67 | 294 | 1.0 | 5.0 | 0.00 | 0.09 | 0.00 | 89 | 1009.0 |
| 20260507042608 | 67 | 239 | 1.0 | 4.0 | 0.00 | 0.09 | 0.00 | 88 | 1008.8 |
| 20260507041709 | 67 | 251 | 1.0 | 5.0 | 0.00 | 0.09 | 0.00 | 88 | 1008.8 |
| 20260507040809 | 67 | 264 | 2.0 | 6.0 | 0.00 | 0.09 | 0.00 | 88 | 1008.8 |
| 20260507035909 | 67 | 273 | 2.0 | 8.0 | 0.00 | 0.09 | 0.09 | 88 | 1008.7 |
| 20260507035008 | 67 | 219 | 2.0 | 7.0 | 0.00 | 0.09 | 0.09 | 88 | 1008.9 |
| 20260507034109 | 67 | 228 | 1.0 | 4.0 | 0.00 | 0.09 | 0.09 | 88 | 1009.0 |
| 20260507032308 | 67 | 273 | 1.0 | 4.0 | 0.00 | 0.09 | 0.09 | 88 | 1008.9 |
| 20260507031408 | 67 | 287 | 1.0 | 4.0 | 0.00 | 0.09 | 0.09 | 88 | 1009.1 |
| 20260507030508 | 67 | 270 | 1.0 | 4.0 | 0.00 | 0.09 | 0.09 | 88 | 1009.2 |
| 20260507024708 | 67 | 222 | 1.0 | 5.0 | 0.00 | 0.09 | 0.09 | 88 | 1008.5 |
| 20260507022908 | 67 | 194 | 2.0 | 7.0 | 0.00 | 0.09 | 0.09 | 87 | 1008.5 |
| 20260507022008 | 67 | 188 | 2.0 | 7.0 | 0.00 | 0.09 | 0.09 | 87 | 1008.4 |
| 20260507021108 | 67 | 195 | 1.0 | 4.0 | 0.00 | 0.09 | 0.09 | 87 | 1008.4 |
| 20260507020208 | 67 | 219 | 2.0 | 5.0 | 0.00 | 0.09 | 0.09 | 87 | 1008.6 |
| 20260507015308 | 67 | 192 | 2.0 | 8.0 | 0.00 | 0.09 | 0.09 | 87 | 1008.9 |
| 20260507014408 | 67 | 193 | 2.0 | 5.0 | 0.00 | 0.09 | 0.09 | 86 | 1008.8 |
| 20260507013508 | 67 | 194 | 1.0 | 6.0 | 0.00 | 0.09 | 0.09 | 86 | 1008.8 |
| 20260507012608 | 67 | 228 | 2.0 | 7.0 | 0.00 | 0.09 | 0.09 | 86 | 1008.9 |
| 20260507011708 | 67 | 216 | 1.0 | 6.0 | 0.00 | 0.09 | 0.09 | 86 | 1008.9 |
| 20260507005008 | 67 | 197 | 2.0 | 6.0 | 0.00 | 0.09 | 0.09 | 85 | 1008.4 |
| 20260507004108 | 67 | 221 | 2.0 | 7.0 | 0.00 | 0.09 | 0.09 | 85 | 1008.6 |
| 20260507003208 | 68 | 220 | 2.0 | 7.0 | 0.00 | 0.09 | 0.09 | 84 | 1008.7 |
| 20260507002308 | 68 | 200 | 2.0 | 6.0 | 0.00 | 0.09 | 0.09 | 84 | 1008.5 |
| 20260507001408 | 68 | 205 | 2.0 | 7.0 | 0.00 | 0.09 | 0.09 | 83 | 1008.7 |
| 20260507000508 | 68 | 237 | 2.0 | 8.0 | 0.00 | 0.09 | 0.09 | 83 | 1008.8 |
| 20260506235608 | 69 | 243 | 2.0 | 6.0 | 0.00 | 0.09 | 0.09 | 82 | 1008.7 |
| 20260506234708 | 69 | 230 | 2.0 | 7.0 | 0.00 | 0.09 | 0.09 | 82 | 1008.7 |
| 20260506232908 | 69 | 230 | 3.0 | 10.0 | 0.00 | 0.09 | 0.09 | 80 | 1008.4 |
| 20260506232008 | 70 | 222 | 3.0 | 10.0 | 0.00 | 0.09 | 0.09 | 80 | 1008.2 |
| 20260506231107 | 70 | 229 | 4.0 | 10.0 | 0.00 | 0.09 | 0.09 | 79 | 1008.3 |
| 20260506230208 | 71 | 213 | 3.0 | 9.0 | 0.00 | 0.09 | 0.09 | 79 | 1008.2 |
| 20260506225308 | 71 | 239 | 3.0 | 9.0 | 0.00 | 0.09 | 0.09 | 79 | 1008.3 |
| 20260506224407 | 71 | 242 | 2.0 | 8.0 | 0.00 | 0.09 | 0.09 | 79 | 1008.4 |
| 20260506222607 | 71 | 214 | 3.0 | 12.0 | 0.00 | 0.09 | 0.09 | 80 | 1008.3 |
| 20260506221707 | 71 | 225 | 3.0 | 9.0 | 0.00 | 0.09 | 0.09 | 80 | 1008.4 |
| 20260506220807 | 71 | 227 | 2.0 | 9.0 | 0.00 | 0.09 | 0.09 | 80 | 1008.4 |
| 20260506215907 | 71 | 203 | 3.0 | 8.0 | 0.00 | 0.09 | 0.09 | 80 | 1008.4 |
| 20260506215007 | 71 | 203 | 3.0 | 10.0 | 0.00 | 0.09 | 0.09 | 79 | 1008.3 |
| 20260506214107 | 71 | 224 | 3.0 | 10.0 | 0.00 | 0.09 | 0.09 | 79 | 1008.4 |
| 20260506212307 | 71 | 210 | 4.0 | 10.0 | 0.00 | 0.09 | 0.09 | 78 | 1008.5 |
| 20260506211407 | 71 | 220 | 2.0 | 8.0 | 0.00 | 0.09 | 0.09 | 78 | 1008.6 |
| 20260506210507 | 71 | 250 | 4.0 | 12.0 | 0.00 | 0.09 | 0.09 | 78 | 1008.6 |
| 20260506204707 | 71 | 259 | 3.0 | 11.0 | 0.00 | 0.09 | 0.09 | 78 | 1008.5 |
| 20260506202907 | 71 | 201 | 4.0 | 14.0 | 0.00 | 0.09 | 0.09 | 78 | 1008.3 |
| 20260506201107 | 70 | 205 | 4.0 | 11.0 | 0.00 | 0.09 | 0.09 | 80 | 1008.5 |
| 20260506200207 | 68 | 237 | 2.0 | 7.0 | 0.00 | 0.09 | 0.09 | 83 | 1008.8 |
| 20260506194407 | 67 | 228 | 3.0 | 10.0 | 0.00 | 0.09 | 0.09 | 83 | 1008.5 |
| 20260506193507 | 67 | 192 | 2.0 | 10.0 | 0.00 | 0.09 | 0.09 | 83 | 1008.4 |
| 20260506192607 | 67 | 225 | 2.0 | 10.0 | 0.00 | 0.09 | 0.09 | 83 | 1008.7 |
| 20260506191707 | 67 | 254 | 3.0 | 11.0 | 0.00 | 0.09 | 0.09 | 84 | 1008.9 |
| 20260506190807 | 67 | 218 | 4.0 | 14.0 | 0.00 | 0.09 | 0.09 | 83 | 1008.9 |
| 20260506184107 | 66 | 231 | 2.0 | 9.0 | 0.00 | 0.09 | 0.09 | 85 | 1009.1 |
| 20260506182307 | 66 | 225 | 4.0 | 9.0 | 0.00 | 0.09 | 0.09 | 86 | 1009.4 |
| 20260506181407 | 66 | 229 | 3.0 | 9.0 | 0.00 | 0.09 | 0.09 | 86 | 1009.4 |
| 20260506180507 | 65 | 202 | 3.0 | 9.0 | 0.00 | 0.09 | 0.09 | 86 | 1009.5 |
| 20260506175606 | 65 | 233 | 4.0 | 13.0 | 0.00 | 0.09 | 0.09 | 86 | 1009.7 |
| 20260506174706 | 65 | 237 | 3.0 | 12.0 | 0.00 | 0.09 | 0.09 | 86 | 1009.7 |
| 20260506173806 | 65 | 221 | 4.0 | 10.0 | 0.00 | 0.09 | 0.09 | 87 | 1009.6 |
| 20260506172906 | 65 | 229 | 3.0 | 9.0 | 0.00 | 0.09 | 0.09 | 88 | 1009.8 |
| 20260506172006 | 64 | 236 | 3.0 | 11.0 | 0.00 | 0.09 | 0.09 | 88 | 1009.8 |
| 20260506171106 | 64 | 216 | 3.0 | 8.0 | 0.00 | 0.09 | 0.09 | 89 | 1009.9 |
| 20260506170206 | 64 | 203 | 3.0 | 10.0 | 0.00 | 0.09 | 0.09 | 89 | 1010.0 |
| 20260506165307 | 64 | 205 | 3.0 | 12.0 | 0.00 | 0.09 | 0.09 | 89 | 1010.0 |
| 20260506164406 | 64 | 196 | 3.0 | 11.0 | 0.01 | 0.09 | 0.09 | 89 | 1010.0 |
| 20260506163506 | 63 | 201 | 4.0 | 11.0 | 0.01 | 0.09 | 0.09 | 90 | 1010.2 |
| 20260506162606 | 63 | 213 | 3.0 | 11.0 | 0.01 | 0.09 | 0.09 | 91 | 1010.3 |
| 20260506161706 | 63 | 230 | 3.0 | 10.0 | 0.01 | 0.09 | 0.09 | 92 | 1010.5 |
| 20260506160806 | 63 | 206 | 3.0 | 10.0 | 0.01 | 0.09 | 0.09 | 93 | 1010.3 |
| 20260506155906 | 62 | 198 | 4.0 | 10.0 | 0.01 | 0.09 | 0.09 | 92 | 1010.1 |
| 20260506155006 | 62 | 231 | 3.0 | 9.0 | 0.01 | 0.09 | 0.09 | 93 | 1010.3 |
| 20260506153206 | 61 | 191 | 3.0 | 10.0 | 0.02 | 0.08 | 0.08 | 93 | 1010.3 |
| 20260506152306 | 61 | 208 | 4.0 | 12.0 | 0.02 | 0.08 | 0.08 | 93 | 1010.3 |